Weather History for Rutland, VT

Change the Weather History Date:

Tuesday, July 9, 2013

  Actual Average Record
Temperature  
Mean Temperature 73 °F -  
Max Temperature 82 °F - 94 °F (1981)
Min Temperature 64 °F - 42 °F (1963)
Degree Days  
Heating Degree Days 0    
Month to date heating degree days 0  
Since 1 June heating degree days 107  
Since 1 July heating degree days 0  
Cooling Degree Days 8    
Month to date cooling degree days 79  
Year to date cooling degree days 180  
Since 1 June cooling degree days 153  
Growing Degree Days 24 (Base 50)    
Moisture  
Dew Point 67 °F    
Average Humidity 82    
Maximum Humidity 100    
Minimum Humidity 63    
Precipitation  
Precipitation 0.01 in - 2.25 in (2005)
Month to date precipitation 2.59  
Year to date precipitation 12.17  
Sea Level Pressure  
Sea Level Pressure 30.05 in    
Wind  
Wind Speed 5 mph (SE)    
Max Wind Speed 15 mph    
Max Gust Speed 22 mph    
Visibility 8 miles    
Events Thunderstorm    
T = Trace of Precipitation, MM = Missing Value Source: NWS Daily Summary

Daily Weather History Graph

Daily Weather History Graph

Search for Another Location

Airport:

Trip Planner

Search our weather history database for the weather conditions in past years. The results will help you decide how hot, cold, wet, or windy it might be!

Date:

Astronomy

Jul. 09, 2013 Rise Set
Actual Time 5:19 AM EDT 8:33 PM EDT
Civil Twilight 4:44 AM EDT 9:08 PM EDT
Nautical Twilight 3:59 AM EDT 9:54 PM EDT
Astronomical Twilight 3:03 AM EDT 10:49 PM EDT
Moon 6:45 AM EDT (7/9) 9:04 PM EDT (7/9)
Length of Visible Light 16h 24m
Length of Day
15h 14m
New Moon, 2% of the Moon is Illuminated
Jul 9
New Moon
Jul 15
First Quarter
Jul 22
Full
Jul 29
Last Quarter
Aug 6
New

Hourly Weather History & Observations

Time (EDT) Temp. Heat Index Dew Point Humidity Pressure Visibility Wind Dir Wind Speed Gust Speed Precip Events Conditions
12:15 AM 69.8 °F - 68.0 °F 94% 30.06 in 2.0 mi Calm Calm - N/A   Overcast
12:35 AM 69.8 °F - 68.0 °F 94% 30.06 in 10.0 mi Calm Calm - N/A   Overcast
12:55 AM 69.8 °F - 68.0 °F 94% 30.06 in 10.0 mi SE 3.5 mph - N/A   Overcast
1:15 AM 69.8 °F - 68.0 °F 94% 30.07 in 10.0 mi Calm Calm - N/A   Mostly Cloudy
1:35 AM 69.8 °F - 68.0 °F 94% 30.05 in 9.0 mi SSE 3.5 mph - N/A   Clear
1:55 AM 68.0 °F - 66.2 °F 94% 30.06 in 7.0 mi Calm Calm - N/A   Partly Cloudy
2:15 AM 68.0 °F - 66.2 °F 94% 30.06 in 5.0 mi Calm Calm - N/A   Mostly Cloudy
2:35 AM 68.0 °F - 66.2 °F 94% 30.06 in 8.0 mi Calm Calm - N/A   Mostly Cloudy
2:55 AM 68.0 °F - 66.2 °F 94% 30.05 in 10.0 mi Calm Calm - N/A   Partly Cloudy
3:15 AM 66.2 °F - 66.2 °F 100% 30.05 in 0.2 mi Calm Calm - N/A   Overcast
3:35 AM 66.2 °F - 64.4 °F 94% 30.05 in 0.2 mi Calm Calm - N/A   Overcast
3:55 AM 66.2 °F - 66.2 °F 100% 30.05 in 0.2 mi Calm Calm - N/A   Overcast
4:15 AM 66.2 °F - 66.2 °F 100% 30.05 in 2.5 mi Calm Calm - N/A   Overcast
4:35 AM 66.2 °F - 64.4 °F 94% 30.06 in 3.0 mi SE 4.6 mph - N/A   Mostly Cloudy
4:55 AM 66.2 °F - 64.4 °F 94% 30.06 in 9.0 mi Calm Calm - N/A   Overcast
5:15 AM 66.2 °F - 66.2 °F 100% 30.06 in 0.5 mi Calm Calm - N/A   Overcast
5:35 AM 66.2 °F - 66.2 °F 100% 30.07 in 0.2 mi Calm Calm - N/A   Overcast
5:55 AM 66.2 °F - 66.2 °F 100% 30.08 in 0.2 mi Calm Calm - N/A   Overcast
6:15 AM 66.2 °F - 66.2 °F 100% 30.08 in 0.2 mi Calm Calm - N/A   Overcast
6:35 AM 66.2 °F - 66.2 °F 100% 30.09 in 0.8 mi Calm Calm - N/A   Overcast
6:55 AM 66.2 °F - 64.4 °F 94% 30.09 in 1.8 mi Calm Calm - N/A   Overcast
7:15 AM 66.2 °F - 64.4 °F 94% 30.10 in 10.0 mi Calm Calm - N/A   Overcast
7:35 AM 68.0 °F - 66.2 °F 94% 30.10 in 5.0 mi Calm Calm - N/A   Overcast
7:55 AM 69.8 °F - 66.2 °F 88% 30.10 in 10.0 mi Calm Calm - N/A   Overcast
8:15 AM 69.8 °F - 68.0 °F 94% 30.10 in 8.0 mi WSW 3.5 mph - N/A   Overcast
8:35 AM 69.8 °F - 68.0 °F 94% 30.09 in 10.0 mi Calm Calm - N/A   Mostly Cloudy
8:55 AM 71.6 °F - 69.8 °F 94% 30.09 in 10.0 mi Calm Calm - N/A   Overcast
9:35 AM 73.4 °F - 68.0 °F 83% 30.09 in 10.0 mi Calm Calm - N/A   Mostly Cloudy
9:55 AM 75.2 °F - 68.0 °F 78% 30.09 in 10.0 mi Calm Calm - N/A   Scattered Clouds
10:15 AM 77.0 °F - 69.8 °F 78% 30.09 in 10.0 mi Calm Calm - N/A   Scattered Clouds
10:35 AM 77.0 °F - 68.0 °F 74% 30.09 in 10.0 mi Calm Calm - N/A   Mostly Cloudy
10:55 AM 77.0 °F - 66.2 °F 69% 30.08 in 10.0 mi Calm Calm - N/A   Overcast
11:15 AM 78.8 °F - 68.0 °F 69% 30.08 in 10.0 mi NW 5.8 mph - N/A   Overcast
11:35 AM 78.8 °F - 68.0 °F 69% 30.08 in 10.0 mi Calm Calm - N/A   Scattered Clouds
11:55 AM 78.8 °F - 66.2 °F 65% 30.07 in 10.0 mi Calm Calm - N/A   Mostly Cloudy
12:15 PM 78.8 °F - 66.2 °F 65% 30.07 in 10.0 mi Calm Calm - N/A   Scattered Clouds
12:35 PM 75.2 °F - 66.2 °F 73% 30.06 in 9.0 mi NNE 4.6 mph - 0.01 in   Mostly Cloudy
12:55 PM 77.0 °F - 68.0 °F 74% 30.06 in 10.0 mi East 4.6 mph - 0.01 in   Scattered Clouds
1:15 PM 80.6 °F 82.7 °F 66.2 °F 61% 30.05 in 10.0 mi ESE 4.6 mph - N/A   Clear
1:35 PM 80.6 °F 83.9 °F 69.8 °F 70% 30.05 in 10.0 mi ESE 9.2 mph - N/A   Clear
1:55 PM 80.6 °F 83.2 °F 68.0 °F 65% 30.05 in 10.0 mi SSE 5.8 mph - N/A   Mostly Cloudy
2:15 PM 80.6 °F 83.2 °F 68.0 °F 65% 30.04 in 10.0 mi ESE 5.8 mph - N/A   Scattered Clouds
2:35 PM 82.4 °F 85.4 °F 68.0 °F 62% 30.03 in 10.0 mi Calm Calm - N/A   Partly Cloudy
2:55 PM 82.4 °F 85.4 °F 68.0 °F 62% 30.02 in 10.0 mi SE 8.1 mph - N/A   Mostly Cloudy
3:15 PM 80.6 °F 83.2 °F 68.0 °F 65% 30.03 in 10.0 mi SSE 9.2 mph - N/A   Mostly Cloudy
3:35 PM 78.8 °F - 68.0 °F 69% 30.03 in 10.0 mi SE 6.9 mph - N/A   Mostly Cloudy
3:55 PM 78.8 °F - 69.8 °F 74% 30.03 in 10.0 mi ESE 9.2 mph - N/A   Scattered Clouds
4:15 PM 78.8 °F - 69.8 °F 74% 30.03 in 10.0 mi ESE 6.9 mph - N/A   Mostly Cloudy
4:35 PM 80.6 °F 83.9 °F 69.8 °F 70% 30.02 in 10.0 mi SE 6.9 mph - N/A   Partly Cloudy
4:55 PM 80.6 °F 83.9 °F 69.8 °F 70% 30.02 in 10.0 mi SE 6.9 mph - N/A Thunderstorm Scattered Clouds
5:15 PM 78.8 °F - 68.0 °F 69% 30.02 in 10.0 mi ESE 13.8 mph - N/A Thunderstorm Mostly Cloudy
5:35 PM 73.4 °F - 64.4 °F 73% 30.03 in 10.0 mi ESE 10.4 mph 21.9 mph N/A Thunderstorm Overcast
5:55 PM 73.4 °F - 64.4 °F 73% 30.03 in 10.0 mi ESE 15.0 mph - N/A   Overcast
6:15 PM 73.4 °F - 66.2 °F 78% 30.02 in 10.0 mi ESE 15.0 mph - N/A   Scattered Clouds
6:35 PM 73.4 °F - 66.2 °F 78% 30.03 in 10.0 mi SSE 9.2 mph - N/A   Partly Cloudy
6:55 PM 75.2 °F - 68.0 °F 78% 30.03 in 10.0 mi SE 9.2 mph - N/A   Partly Cloudy
7:15 PM 75.2 °F - 69.8 °F 83% 30.02 in 10.0 mi ESE 13.8 mph - N/A   Clear
7:35 PM 73.4 °F - 69.8 °F 88% 30.02 in 10.0 mi SE 16.1 mph - N/A   Clear
7:55 PM 73.4 °F - 68.0 °F 83% 30.02 in 10.0 mi SE 15.0 mph - N/A   Clear
8:15 PM 71.6 °F - 68.0 °F 88% 30.02 in 10.0 mi SE 10.4 mph - N/A   Clear
8:35 PM 71.6 °F - 68.0 °F 88% 30.03 in 10.0 mi SSE 10.4 mph - N/A   Clear
8:55 PM 71.6 °F - 66.2 °F 83% 30.02 in 10.0 mi SE 9.2 mph - N/A   Clear
9:15 PM 71.6 °F - 66.2 °F 83% 30.02 in 10.0 mi SE 10.4 mph - N/A   Clear
9:35 PM 71.6 °F - 66.2 °F 83% 30.03 in 10.0 mi South 12.7 mph - N/A   Clear
9:55 PM 71.6 °F - 66.2 °F 83% 30.04 in 10.0 mi SE 8.1 mph - N/A   Partly Cloudy
10:15 PM 69.8 °F - 66.2 °F 88% 30.03 in 10.0 mi SE 10.4 mph - N/A   Clear
10:35 PM 69.8 °F - 66.2 °F 88% 30.03 in 10.0 mi SE 10.4 mph - N/A   Clear
10:55 PM 69.8 °F - 66.2 °F 88% 30.03 in 10.0 mi SSE 10.4 mph - N/A   Clear
11:15 PM 71.6 °F - 66.2 °F 83% 30.03 in 10.0 mi SSE 6.9 mph - N/A   Clear
11:35 PM 69.8 °F - 66.2 °F 88% 30.03 in 10.0 mi SE 11.5 mph - N/A   Clear
11:55 PM 69.8 °F - 66.2 °F 88% 30.03 in 10.0 mi SE 9.2 mph - N/A   Clear